TimeCST,TemperatureF,Dew PointF,Humidity,Sea Level PressureIn,VisibilityMPH,Wind Direction,Wind SpeedMPH,Gust SpeedMPH,PrecipitationIn,Events,Conditions,WindDirDegrees,DateUTC
12:15 AM,68.0,60.8,78,29.95,10.0,South,11.5,21.9,N/A,,Scattered Clouds,170,2012-11-11 06:15:00
12:35 AM,68.0,60.8,78,29.95,10.0,South,10.4,17.3,N/A,,Mostly Cloudy,170,2012-11-11 06:35:00
12:55 AM,68.0,60.8,78,29.95,10.0,South,13.8,19.6,N/A,,Mostly Cloudy,170,2012-11-11 06:55:00
1:15 AM,68.0,60.8,78,29.94,10.0,SSE,12.7,20.7,N/A,,Mostly Cloudy,160,2012-11-11 07:15:00
1:35 AM,68.0,60.8,78,29.93,10.0,SSE,15.0,20.7,N/A,,Mostly Cloudy,160,2012-11-11 07:35:00
1:55 AM,68.0,60.8,78,29.93,10.0,South,12.7,-,N/A,,Scattered Clouds,170,2012-11-11 07:55:00
2:15 AM,68.0,60.8,78,29.93,10.0,South,12.7,-,N/A,,Scattered Clouds,170,2012-11-11 08:15:00
2:35 AM,68.0,60.8,78,29.93,10.0,SSE,12.7,17.3,N/A,,Mostly Cloudy,160,2012-11-11 08:35:00
2:55 AM,68.0,60.8,78,29.93,10.0,South,11.5,-,N/A,,Mostly Cloudy,170,2012-11-11 08:55:00
3:15 AM,68.0,60.8,78,29.93,10.0,South,12.7,17.3,N/A,,Mostly Cloudy,170,2012-11-11 09:15:00
3:35 AM,68.0,60.8,78,29.91,10.0,SSE,12.7,18.4,N/A,,Overcast,160,2012-11-11 09:35:00
3:55 AM,68.0,60.8,78,29.91,10.0,South,15.0,26.5,N/A,,Mostly Cloudy,170,2012-11-11 09:55:00
4:15 AM,69.8,60.8,73,29.91,10.0,SSE,15.0,19.6,N/A,,Overcast,160,2012-11-11 10:15:00
4:35 AM,68.0,60.8,78,29.91,10.0,SSE,13.8,21.9,N/A,,Mostly Cloudy,160,2012-11-11 10:35:00
4:55 AM,68.0,60.8,78,29.91,10.0,SSE,17.3,23.0,N/A,,Overcast,160,2012-11-11 10:55:00
5:35 AM,69.8,60.8,73,29.92,10.0,SSE,15.0,20.7,N/A,,Overcast,160,2012-11-11 11:35:00
5:55 AM,69.8,60.8,73,29.92,10.0,SSE,16.1,26.5,N/A,,Overcast,160,2012-11-11 11:55:00
6:15 AM,69.8,62.6,78,29.92,10.0,SSE,13.8,21.9,N/A,,Overcast,160,2012-11-11 12:15:00
6:35 AM,69.8,62.6,78,29.92,10.0,SSE,17.3,20.7,N/A,,Overcast,160,2012-11-11 12:35:00
7:35 AM,68.0,62.6,83,29.93,7.0,SSE,17.3,21.9,N/A,,Drizzle,160,2012-11-11 13:35:00
7:55 AM,68.0,64.4,88,29.94,10.0,South,9.2,18.4,N/A,,Overcast,170,2012-11-11 13:55:00
8:15 AM,68.0,64.4,88,29.95,10.0,South,8.1,-,N/A,,Overcast,180,2012-11-11 14:15:00
8:35 AM,68.0,64.4,88,29.95,10.0,South,10.4,-,N/A,,Overcast,180,2012-11-11 14:35:00
8:55 AM,69.8,64.4,83,29.96,10.0,South,9.2,-,N/A,,Overcast,170,2012-11-11 14:55:00
9:15 AM,69.8,64.4,83,29.96,10.0,South,9.2,-,N/A,,Overcast,170,2012-11-11 15:15:00
9:35 AM,69.8,64.4,83,29.97,10.0,South,11.5,-,N/A,,Overcast,170,2012-11-11 15:35:00
9:55 AM,69.8,64.4,83,29.97,10.0,South,9.2,17.3,N/A,,Overcast,170,2012-11-11 15:55:00
10:15 AM,69.8,64.4,83,29.97,10.0,South,10.4,19.6,N/A,,Overcast,170,2012-11-11 16:15:00
10:35 AM,71.6,64.4,78,29.96,10.0,South,11.5,-,N/A,,Overcast,170,2012-11-11 16:35:00
10:55 AM,71.6,64.4,78,29.96,10.0,South,10.4,-,N/A,,Mostly Cloudy,170,2012-11-11 16:55:00
11:15 AM,73.4,64.4,73,29.94,10.0,SSE,12.7,18.4,N/A,,Mostly Cloudy,160,2012-11-11 17:15:00
11:35 AM,73.4,64.4,73,29.93,10.0,SSE,16.1,23.0,N/A,,Scattered Clouds,160,2012-11-11 17:35:00
12:15 PM,75.2,64.4,69,29.91,10.0,South,12.7,25.3,N/A,,Overcast,180,2012-11-11 18:15:00
12:35 PM,75.2,64.4,69,29.90,10.0,South,12.7,23.0,N/A,,Scattered Clouds,180,2012-11-11 18:35:00
12:55 PM,77.0,64.4,65,29.89,10.0,South,15.0,23.0,N/A,,Scattered Clouds,180,2012-11-11 18:55:00
1:15 PM,77.0,62.6,61,29.88,10.0,South,11.5,21.9,N/A,,Scattered Clouds,190,2012-11-11 19:15:00
1:35 PM,77.0,62.6,61,29.88,10.0,South,15.0,24.2,N/A,,Clear,190,2012-11-11 19:35:00
1:55 PM,77.0,62.6,61,29.87,10.0,South,11.5,18.4,N/A,,Scattered Clouds,190,2012-11-11 19:55:00
2:15 PM,77.0,62.6,61,29.88,10.0,SSW,13.8,18.4,N/A,Thunderstorm,Scattered Clouds,210,2012-11-11 20:15:00
2:35 PM,77.0,62.6,61,29.88,10.0,SSW,10.4,23.0,N/A,,Mostly Cloudy,200,2012-11-11 20:35:00
2:55 PM,77.0,62.6,61,29.88,10.0,SSW,12.7,16.1,N/A,,Mostly Cloudy,200,2012-11-11 20:55:00
3:15 PM,77.0,62.6,61,29.88,10.0,South,8.1,19.6,N/A,Thunderstorm,Thunderstorm,180,2012-11-11 21:15:00
3:35 PM,77.0,62.6,61,29.89,10.0,SSW,5.8,16.1,N/A,Rain-Thunderstorm,Light Thunderstorms and Rain,210,2012-11-11 21:35:00
3:55 PM,73.4,64.4,73,29.90,10.0,WSW,5.8,-,N/A,Thunderstorm,Mostly Cloudy,240,2012-11-11 21:55:00
4:15 PM,73.4,64.4,73,29.91,10.0,SW,3.5,-,N/A,,Mostly Cloudy,220,2012-11-11 22:15:00
4:35 PM,71.6,64.4,78,29.92,10.0,Calm,Calm,-,N/A,Rain,Light Rain,0,2012-11-11 22:35:00
4:55 PM,66.2,59.0,78,29.94,1.8,NNW,10.4,21.9,0.20,Rain,Heavy Rain,340,2012-11-11 22:55:00
5:15 PM,59.0,53.6,82,29.97,10.0,NNW,11.5,21.9,0.01,Rain-Thunderstorm,Light Thunderstorms and Rain,340,2012-11-11 23:15:00
5:35 PM,57.2,51.8,82,30.00,10.0,ENE,5.8,-,0.03,Rain-Thunderstorm,Light Thunderstorms and Rain,60,2012-11-11 23:35:00
5:55 PM,57.2,53.6,88,30.01,10.0,NNE,6.9,-,0.03,,Overcast,20,2012-11-11 23:55:00
6:15 PM,55.4,51.8,88,30.02,10.0,NNE,4.6,-,N/A,Rain,Light Rain,30,2012-11-12 00:15:00
6:35 PM,55.4,51.8,88,30.03,10.0,North,4.6,-,N/A,Rain,Light Rain,10,2012-11-12 00:35:00
6:55 PM,55.4,51.8,88,30.08,10.0,West,9.2,-,0.01,Rain,Rain,270,2012-11-12 00:55:00
7:15 PM,55.4,51.8,88,30.09,10.0,NW,3.5,-,0.01,Rain-Thunderstorm,Light Thunderstorms and Rain,320,2012-11-12 01:15:00
7:35 PM,53.6,51.8,94,30.08,10.0,North,4.6,-,0.01,,Overcast,10,2012-11-12 01:35:00
7:55 PM,53.6,51.8,94,30.08,10.0,North,9.2,-,0.01,Rain,Light Rain,360,2012-11-12 01:55:00
8:15 PM,53.6,50.0,88,30.08,10.0,NE,8.1,-,N/A,,Overcast,40,2012-11-12 02:15:00
8:35 PM,53.6,50.0,88,30.09,10.0,NNE,5.8,-,N/A,Thunderstorm,Thunderstorm,30,2012-11-12 02:35:00
8:55 PM,53.6,50.0,88,30.13,10.0,NW,4.6,-,N/A,Rain-Thunderstorm,Rain,310,2012-11-12 02:55:00
9:15 PM,53.6,50.0,88,30.14,7.0,Calm,Calm,-,0.03,Rain,Heavy Rain,0,2012-11-12 03:15:00
9:35 PM,53.6,50.0,88,30.13,2.0,ENE,4.6,-,0.39,Rain-Thunderstorm,Heavy Thunderstorms and Rain,70,2012-11-12 03:35:00
9:55 PM,51.8,50.0,94,30.15,10.0,NNE,4.6,-,0.43,Rain-Thunderstorm,Light Thunderstorms and Rain,20,2012-11-12 03:55:00
10:15 PM,51.8,50.0,94,30.16,7.0,NNE,4.6,-,0.03,Rain-Thunderstorm,Rain,20,2012-11-12 04:15:00
10:35 PM,53.6,50.0,88,30.18,10.0,North,3.5,-,0.03,Thunderstorm,Unknown,360,2012-11-12 04:35:00
10:55 PM,51.8,50.0,94,30.19,10.0,Calm,Calm,-,0.03,Thunderstorm,Overcast,0,2012-11-12 04:55:00
11:15 PM,53.6,50.0,88,30.21,10.0,Calm,Calm,-,N/A,Rain-Thunderstorm,Light Thunderstorms and Rain,0,2012-11-12 05:15:00
11:35 PM,53.6,50.0,88,30.22,10.0,Calm,Calm,-,N/A,Thunderstorm,Mostly Cloudy,0,2012-11-12 05:35:00